Location: Nairn
(57.5833°N, 3.8667°W)
Time: 17:05:53
(UTC+00:00)

S-56A Canister/Altair - Pass Details

Date: 30 November 2020
Orbit: 633 x 2499 km, 38.9° (Epoch: 19 January)

Event Time Altitude Azimuth Distance (km) Brightness Sun altitude
Rises 18:43:23 0° 209° (SSW) 5,700 12.4 -23.4°
Reaches altitude 10° 18:49:16 10° 192° (SSW) 4,350 11.5 -24.2°
Maximum altitude 18:55:19 16° 160° (SSE) 3,434 10.6 -25.0°
Enters shadow 18:57:28 15° 145° (SE) 3,351 10.5 -25.3°
Drops below altitude 10° 19:00:22 10° 126° (SE) 3,502 - -25.7°
Sets 19:04:16 0° 106° (ESE) 4,135 - -26.2°
